Home > Weather > Tamworth > Past weeks

Flag for Australia Past Weather in Tamworth, New South Wales, Australia — Yesterday and Last 2 Weeks

Now
41 °F

Clear.


Feels Like: 37 °F
Forecast: 36 / 52 °F
Wind: 6 mph from North

Location: Tamworth Airport

Current Time: Jul 24, 2016 at 3:09:32 AM

Latest Report: Jul 24, 2016 at 2:30 AM


Visibility: N/A

Pressure: 30.01 "Hg

Humidity: 81%

Dew Point: 36 °F

Location of TamworthLocation

Past Weather in Tamworth — Graph

°F

Tamworth Temperature Yesterday

Maximum temperature yesterday: 70 °F (at 2:00 AM)
Minimum temperature yesterday: 41 °F (at 11:00 PM)
Average temperature yesterday: 59 °F

High & Low Weather Summary for the Past Weeks

 TemperatureHumidityPressure
High73 °F (Jul 19, 2:00 PM)94% (Jul 9, 11:30 AM)30.45 "Hg (Jul 9, 11:30 AM)
Low27 °F (Jul 15, 6:00 AM)30% (Jul 13, 1:30 PM)29.65 "Hg (Jul 23, 3:30 AM)
Average53 °F73%30.16 "Hg
* Reported Jul 9 2:00 AM — Jul 24 2:00 AM, Tamworth, Weather by CustomWeather, © 2016

Note: Actual official high and low records may vary slightly from our data, if they occured in-between our weather recording intervals... More about our weather records

Advertising

Tamworth Weather History for the Previous 24 Hours

Scroll right to see more
 ConditionsComfort  
Time TempWeatherWind HumidityBarometerVisibility
2:00 AM
Sun, Jul 24
39 °FClear.3 mph81%30.01 "HgN/A
1:00 AM41 °FClear.3 mph81%30.01 "HgN/A
12:00 AM39 °FClear.5 mph81%30.01 "HgN/A
11:00 PM
Sat, Jul 23
41 °FClear.No wind76%30.01 "HgN/A
10:00 PM43 °FClear.6 mph71%30.01 "HgN/A
9:00 PM46 °FClear.6 mph66%29.98 "HgN/A
8:30 PM48 °FClear.5 mph62%29.98 "HgN/A
8:00 PM48 °FClear.1 mph62%29.98 "HgN/A
7:00 PM48 °FClear.6 mph62%29.95 "HgN/A
6:30 PM50 °FClear.13 mph58%29.95 "HgN/A
6:00 PM50 °FClear.12 mph62%29.92 "HgN/A
5:00 PM54 °FClear.14 mph47%29.89 "HgN/A
4:00 PM59 °FSunny.15 mph36%29.86 "HgN/A
3:30 PM61 °FScattered clouds.16 mph36%29.83 "HgN/A
3:00 PM61 °FSunny.20 mph34%29.83 "HgN/A
2:00 PM61 °FScattered clouds.16 mph36%29.83 "HgN/A
1:30 PM63 °FSunny.17 mph34%29.83 "HgN/A
1:00 PM61 °FScattered clouds.15 mph36%29.83 "HgN/A
12:00 PM61 °FSunny.15 mph42%29.86 "HgN/A
11:00 AM61 °FScattered clouds.18 mph34%29.86 "HgN/A
10:30 AM61 °FSunny.20 mph39%29.89 "HgN/A
10:00 AM61 °FSunny.17 mph36%29.86 "HgN/A
9:30 AM59 °FSunny.18 mph42%29.86 "HgN/A
9:00 AM59 °FSunny.20 mph39%29.86 "HgN/A
8:00 AM57 °FSunny.13 mph48%29.86 "HgN/A
7:30 AM55 °FSunny.20 mph47%29.83 "HgN/A
7:00 AM57 °FBroken clouds.24 mph48%29.80 "HgN/A
6:00 AM59 °FCloudy.23 mph59%29.74 "HgN/A
5:00 AM66 °FPartly cloudy.23 mph68%29.68 "HgN/A
4:30 AM68 °FMostly cloudy.23 mph64%29.68 "HgN/A
4:00 AM70 °FMostly cloudy.28 mph60%29.68 "HgN/A
3:30 AM68 °FMostly cloudy.20 mph69%29.65 "HgN/A
3:00 AM68 °FOvercast.23 mph69%29.68 "HgN/A
Weather by CustomWeather, © 2016

See weather overviewHow to use our weather pages